Theta_e
355 358 364 366 365 367 366 367 366 366 367 366 366 367 363 364 366 365 365 364 363 364 364 363 363 362 362 362 361 362 362 362 361 362 362 361 361 360 361 361 359 358 364
356 359 364 366 365 366 365 366 366 366 366 366 366 364 362 365 365 365 366 365 363 362 361 360 360 361 362 361 360 361 360 360 360 360 360 361 361 361 360 361 359 360 363
355 358 359 365 365 365 366 365 365 365 365 365 364 364 362 363 362 361 361 360 359 359 359 359 358 356 356 356 356 357 357 357 357 359 359 360 356 361 360 361 361 363 362
355 356 356 365 366 366 366 365 364 363 362 362 362 362 362 361 360 359 358 358 358 356 355 355 354 353 353 354 355 353 353 355 357 358 357 358 356 362 361 362 361 362 361
355 356 357 366 366 363 364 365 364 362 361 360 361 361 360 359 358 358 358 356 355 354 355 356 357 357 356 355 355 354 355 355 356 356 356 357 353 352 362 362 361 360 360
355 357 362 366 366 365 364 364 362 361 360 360 360 359 359 358 357 356 358 359 359 358 357 357 357 357 357 358 359 359 358 357 356 350 356 353 356 361 361 360 360 361 360
354 358 361 366 366 365 364 363 361 361 360 359 359 358 357 358 358 357 358 358 357 357 358 359 359 359 360 360 360 361 362 363 357 351 352 355 356 362 361 362 362 361 361
351 354 356 364 365 365 363 362 361 361 360 360 358 359 360 359 360 360 359 359 359 359 359 360 361 362 362 362 363 364 365 364 359 357 358 357 358 354 363 362 364 360 355
352 353 357 359 362 363 363 364 363 361 361 362 360 359 360 362 361 360 360 360 360 360 360 362 363 364 365 366 366 368 367 364 360 357 356 354 358 362 365 365 364 361 352
349 351 352 358 358 359 357 364 364 362 361 361 362 362 362 361 362 362 365 365 362 363 364 367 368 369 369 370 369 369 365 366 361 359 360 357 363 365 364 363 364 363 357
344 350 352 352 356 358 359 360 364 362 362 363 362 362 363 357 359 362 365 369 365 365 367 369 371 372 371 369 361 363 365 359 349 358 357 363 364 366 365 365 365 362 359
340 344 349 351 354 356 355 358 358 356 357 361 362 364 363 364 366 362 367 370 371 371 365 360 370 372 371 360 360 353 362 358 360 358 358 364 365 366 365 364 364 363 362
340 343 347 351 355 351 357 358 357 361 360 362 368 369 367 369 367 365 367 368 368 371 363 361 364 365 364 363 360 361 361 358 354 356 356 365 365 366 363 365 364 365 363
339 341 345 353 362 355 356 356 359 358 359 358 360 368 371 369 370 367 363 370 361 357 358 363 358 365 359 360 357 357 344 351 354 356 360 366 365 365 362 362 365 364 364
341 343 348 358 367 370 368 366 365 363 358 358 362 365 368 370 367 363 372 357 359 359 358 367 367 363 364 354 353 359 357 354 355 354 360 367 363 365 363 360 361 362 362
341 342 349 356 362 366 367 372 368 362 369 365 360 366 374 371 374 366 363 366 362 362 365 364 364 366 364 351 355 355 357 356 358 360 360 363 366 363 360 360 359 359 360
343 343 346 351 356 362 367 365 366 364 356 359 366 372 374 377 379 375 367 352 348 358 369 372 351 357 361 353 352 351 357 359 354 361 361 361 361 362 361 359 358 358 359
347 350 348 345 352 359 363 365 364 362 361 360 359 367 374 372 375 375 356 356 348 359 364 356 356 359 353 343 341 353 358 356 361 362 361 360 364 359 358 359 357 351 348
354 357 353 356 353 358 367 366 367 367 369 362 363 361 373 364 362 373 359 353 339 359 361 360 362 354 343 348 355 352 353 359 359 360 360 364 362 360 359 356 349 349 350
354 357 358 357 361 364 365 370 365 364 362 363 361 368 361 348 340 359 363 358 363 359 363 367 371 348 351 352 356 351 354 351 360 361 359 359 360 358 353 348 354 354 352
353 356 362 361 367 363 363 359 358 357 359 358 361 368 364 365 357 364 361 361 368 358 370 369 370 363 358 365 361 354 355 353 353 358 358 357 359 358 358 357 354 353 352
352 357 361 363 367 367 364 363 362 359 361 359 361 370 371 374 370 372 370 370 373 365 359 359 366 365 366 366 356 356 343 346 351 354 357 355 356 356 354 352 350 351 350
351 355 360 365 367 366 368 367 373 369 369 367 368 367 369 372 372 370 370 377 377 371 340 336 354 365 362 363 362 355 345 340 348 349 358 357 355 354 351 351 351 349 349
349 354 361 363 368 367 372 367 369 359 356 358 360 357 363 372 373 372 373 377 380 372 342 348 358 371 369 360 361 364 364 356 345 341 353 357 354 351 351 349 347 347 347
346 350 355 364 367 370 367 370 370 368 362 365 366 373 376 377 372 371 374 378 380 378 366 371 377 376 368 364 360 360 361 359 355 347 340 343 349 350 349 347 346 344 344
345 347 352 361 366 368 372 368 370 372 364 367 370 367 366 365 363 372 370 377 380 380 376 378 379 372 373 368 368 366 358 354 349 344 344 346 342 346 346 346 346 344 344
Wind_Speed
15 15 15 16 17 16 15 15 15 17 15 15 13 15 14 14 15 13 13 13 13 13 14 12 11 11 9 8 8 7 7 7 6 6 7 7 6 6 7 7 4 10 11
19 17 15 15 16 16 15 15 15 15 14 14 13 14 13 12 12 12 12 12 12 12 11 11 10 9 8 7 6 6 6 4 4 5 5 6 6 6 7 7 3 10 9
19 17 16 14 16 16 15 14 14 14 14 12 13 12 12 11 12 11 11 10 9 9 8 8 7 6 5 4 4 3 3 2 1 2 3 4 7 6 7 7 9 9 8
19 16 16 15 14 14 13 13 13 13 13 11 11 12 11 10 9 8 8 7 7 6 5 4 4 3 2 0 0 1 1 3 4 4 5 3 3 11 7 9 9 9 8
16 17 16 14 15 14 12 12 12 11 11 10 9 9 9 7 6 5 5 4 4 3 2 2 3 3 3 3 4 5 5 6 9 7 6 4 9 6 10 10 9 8 6
18 19 16 15 15 14 12 11 11 10 9 8 8 7 6 5 4 3 3 3 2 1 2 3 3 3 4 5 7 7 8 9 10 8 4 4 9 10 11 10 7 9 6
20 17 16 15 14 14 13 12 11 9 8 7 6 5 3 2 2 2 2 2 2 3 4 5 6 6 6 7 8 9 9 10 9 10 10 6 9 11 11 11 9 12 13
21 18 15 14 13 13 13 12 10 9 8 6 4 3 3 4 4 5 5 5 6 7 7 8 8 9 9 9 10 10 11 11 10 10 3 5 16 18 15 13 12 10 6
22 17 15 13 12 12 12 12 11 8 7 7 5 5 7 8 9 9 8 9 9 9 9 11 11 11 11 11 12 14 14 12 9 8 7 10 15 17 18 14 14 14 11
19 19 16 14 12 11 11 10 10 9 9 9 8 10 10 11 12 12 12 13 12 10 11 13 14 12 12 11 12 17 10 12 7 10 2 7 16 15 14 14 13 17 16
10 18 16 15 13 11 11 10 10 11 11 11 10 12 10 8 9 13 13 10 14 12 15 16 15 16 16 10 10 18 12 7 7 7 11 19 17 15 13 13 12 16 18
14 11 12 14 15 12 12 11 10 10 9 8 8 8 8 8 6 8 9 11 11 13 14 15 14 15 13 5 9 19 8 12 3 8 5 17 17 16 14 12 11 17 19
14 11 11 11 9 10 12 9 6 7 7 6 5 4 5 3 3 4 2 4 6 12 7 8 9 8 4 7 7 7 2 3 5 6 6 11 10 12 13 14 14 15 18
14 15 13 12 6 5 6 4 3 1 3 5 7 7 4 3 3 1 2 3 7 4 5 8 2 4 10 5 6 7 6 7 4 6 8 14 18 13 13 14 14 14 16
11 11 12 12 3 3 3 1 3 1 2 4 6 8 4 3 3 1 2 3 7 7 5 6 3 3 3 6 7 8 6 4 9 3 7 18 14 13 11 12 11 12 13
11 10 15 14 8 4 3 2 2 4 3 3 5 6 4 3 1 2 4 3 2 7 3 3 3 5 2 5 5 6 4 6 5 5 8 6 11 9 7 8 8 9 12
11 13 13 12 12 7 5 4 4 4 2 4 2 5 2 0 2 5 4 2 5 7 4 1 4 5 4 5 7 8 5 3 6 5 9 6 6 8 7 7 6 5 6
12 10 12 11 13 10 7 7 7 4 6 1 2 2 2 6 4 6 9 3 11 11 7 6 2 4 10 1 5 8 5 5 8 7 7 6 4 6 6 8 6 4 3
12 8 10 8 13 11 9 6 6 5 2 3 4 4 6 8 8 5 8 6 8 10 3 7 6 13 7 9 11 3 4 4 5 7 6 6 6 5 4 7 4 3 4
14 10 8 6 9 10 7 5 5 5 5 3 3 4 10 7 11 8 4 6 8 5 5 4 5 7 7 8 9 6 5 1 6 5 8 6 5 6 6 6 4 3 6
14 12 10 8 9 7 7 6 5 5 5 5 6 6 16 10 12 12 0 5 6 2 3 4 2 5 5 3 5 7 2 4 6 7 6 3 5 4 6 4 4 1 4
15 13 10 9 10 7 6 5 5 4 4 3 6 5 4 4 6 3 4 2 5 2 13 12 3 2 1 2 4 5 4 3 5 4 5 5 6 4 6 5 4 3 0
16 15 12 9 11 9 8 5 2 4 3 2 1 4 6 5 5 7 8 0 2 4 8 11 14 2 1 3 5 2 3 4 4 4 4 5 5 4 5 5 4 2 4
16 15 13 13 9 11 8 6 6 5 5 5 6 4 5 7 6 5 5 4 3 4 9 12 13 2 2 4 3 3 2 1 1 3 2 4 5 6 3 3 4 3 4
15 15 14 14 12 8 11 8 5 4 4 3 3 5 4 4 4 6 5 6 3 3 2 3 2 1 3 4 4 3 3 2 6 5 1 3 4 4 4 2 3 2 3
14 14 17 16 13 12 10 11 9 6 7 4 1 4 3 4 7 7 7 3 3 2 4 3 1 4 3 4 3 4 3 3 3 6 4 1 1 4 4 2 3 2 3
Wind_Direction
118 128 123 115 115 111 109 104 98 97 93 96 94 85 85 89 85 87 90 90 88 90 90 91 85 79 74 70 72 68 65 82 83 87 92 89 85 71 64 52 12 92 100
127 128 129 125 116 113 109 101 99 100 96 96 91 90 90 86 86 89 88 88 89 88 89 85 84 85 84 83 84 80 84 85 107 120 129 130 125 103 76 52 29 104 103
125 128 132 126 117 116 113 109 106 104 100 98 95 97 99 95 94 90 90 92 91 89 87 87 87 88 89 86 75 72 90 113 209 194 188 184 151 126 105 91 88 104 105
127 132 134 128 121 117 116 116 114 110 107 102 98 95 97 99 101 101 99 97 97 99 101 105 114 122 126 129 317 294 269 252 251 239 231 274 188 140 140 127 116 114 115
121 124 128 134 131 130 125 118 118 118 116 113 102 96 96 93 91 95 99 98 100 110 122 155 181 192 196 217 244 251 253 259 260 263 254 122 153 171 164 144 140 135 148
135 120 136 138 139 135 132 127 124 125 119 116 109 107 101 95 108 115 118 127 140 176 231 242 238 235 232 227 228 238 246 254 270 255 229 220 155 172 176 147 120 110 126
121 127 133 133 134 136 136 135 134 132 129 127 127 122 118 127 150 171 186 197 215 234 246 258 259 248 237 238 241 243 249 256 266 259 213 188 130 165 159 163 155 150 156
129 129 139 138 140 143 142 141 141 146 149 151 155 160 172 204 215 218 220 225 228 232 239 243 249 253 249 239 238 238 242 246 259 255 251 118 159 181 178 172 169 167 157
125 135 139 142 150 151 152 153 156 161 168 180 184 201 218 227 228 225 227 232 235 239 247 250 245 245 248 245 249 238 227 242 258 278 120 147 214 179 177 168 170 171 179
142 146 151 148 160 166 162 165 165 174 184 192 202 218 229 238 240 236 231 229 227 238 252 256 252 241 239 242 258 264 258 256 255 299 214 149 173 169 172 175 185 178 181
119 137 149 153 168 175 154 168 179 193 200 210 214 231 235 233 231 230 222 206 215 229 239 244 244 244 236 202 266 287 236 207 184 177 270 164 167 171 180 186 189 184 184
142 159 134 162 152 174 157 154 191 191 200 205 205 191 221 233 195 212 216 211 212 232 239 251 249 242 256 217 199 213 219 232 273 208 229 179 174 174 178 189 196 191 191
157 171 159 144 154 185 143 179 194 195 171 177 174 215 258 341 204 198 246 234 237 216 235 266 264 218 276 270 8 258 157 10 212 228 198 168 178 184 188 192 196 200 199
169 159 166 133 175 170 122 227 141 207 125 172 172 191 245 227 260 222 302 25 355 293 291 276 183 232 203 131 182 265 270 150 159 233 185 171 194 168 201 206 202 204 209
163 150 148 120 137 69 30 220 360 118 189 179 177 185 231 214 260 218 201 254 160 263 239 236 224 302 327 121 173 208 254 225 157 160 175 178 189 167 195 211 212 217 217
161 154 132 135 152 155 198 3 219 238 112 243 231 143 164 279 295 311 245 10 240 254 288 304 360 315 330 245 225 229 242 222 153 207 122 165 157 151 178 192 203 220 231
159 160 146 148 158 172 198 177 242 251 331 237 279 146 128 316 264 284 8 331 271 300 244 283 344 359 357 4 340 322 274 257 129 106 100 118 126 125 151 165 182 203 248
166 160 146 178 153 168 193 190 224 208 208 191 326 75 187 198 207 261 102 32 287 287 264 122 4 315 28 281 286 291 289 82 91 79 90 111 137 134 145 145 154 170 226
139 149 150 170 153 169 172 190 232 246 204 230 140 217 239 43 337 227 130 196 250 256 330 52 37 45 336 321 284 261 346 123 127 113 107 102 111 122 144 156 168 222 256
139 148 159 155 145 163 160 239 232 216 225 143 254 136 156 128 251 268 147 208 227 273 98 79 95 118 240 246 288 326 260 83 115 117 112 133 130 128 128 152 188 215 235
147 156 157 184 148 167 161 198 224 236 227 176 210 198 165 180 212 240 115 248 240 342 67 89 330 195 198 302 316 322 320 130 153 131 124 100 111 112 117 76 63 101 201
155 161 169 178 162 188 197 226 216 234 220 198 200 169 168 229 279 313 323 285 1 37 23 356 259 236 86 301 269 308 341 355 40 106 114 128 92 113 98 91 97 26 68
162 167 172 186 173 186 232 208 209 321 327 325 248 178 197 212 242 163 218 14 327 52 87 272 282 205 291 306 306 189 338 21 339 18 121 107 104 96 111 132 140 113 289
168 170 172 181 188 190 215 241 195 188 228 220 231 213 173 213 217 264 191 194 217 141 153 194 241 10 300 290 285 234 242 168 302 333 111 131 118 104 81 60 118 179 259
184 174 176 179 188 206 191 230 203 219 259 267 291 151 179 180 230 248 232 196 175 247 112 283 352 7 321 301 348 338 328 50 250 208 141 67 109 116 88 89 63 358 335
189 187 178 174 184 189 189 204 237 203 230 282 269 302 204 212 223 222 246 215 152 261 277 277 240 280 258 303 326 319 300 287 286 302 83 17 85 117 125 106 66 15 50